EN

Hourly Weather Kyzylata

Today, 24 November, Tuesday

Time Temperature Precipitation Wind Pressure Humidity
00:00 -8°C° 0 mm 2 mps 680 mmHg 45%
01:00 -7°C° 0 mm 2 mps 680 mmHg 44%
02:00 -7°C° 0 mm 2 mps 680 mmHg 43%
03:00 -7°C° 0 mm 2 mps 680 mmHg 42%
04:00 -7°C° 0 mm 2 mps 680 mmHg 42%
05:00 -7°C° 0 mm 2 mps 680 mmHg 41%
06:00 -7°C° 0 mm 2 mps 680 mmHg 42%
07:00 -7°C° 0 mm 2 mps 680 mmHg 42%
08:00 -6°C° 0 mm 2 mps 680 mmHg 43%
09:00 -3°C° 0 mm 1 mps 680 mmHg 47%
10:00 -1°C° 0 mm 1 mps 680 mmHg 51%
11:00 0°C° 0 mm 0 mps 680 mmHg 55%
12:00 0°C° 0 mm 0 mps 680 mmHg 58%
13:00 0°C° 0 mm 0 mps 680 mmHg 61%
14:00 +1°C° 0 mm 0 mps 680 mmHg 64%
15:00 0°C° 0 mm 1 mps 679 mmHg 63%
16:00 -1°C° 0 mm 1 mps 679 mmHg 61%
17:00 -3°C° 0 mm 1 mps 679 mmHg 60%
18:00 -3°C° 0 mm 1 mps 679 mmHg 58%
19:00 -3°C° 0 mm 1 mps 679 mmHg 55%
20:00 -5°C° 0 mm 2 mps 679 mmHg 53%
21:00 -5°C° 0 mm 2 mps 679 mmHg 53%
22:00 -5°C° 0 mm 2 mps 679 mmHg 52%
23:00 -5°C° 0 mm 2 mps 679 mmHg 52%

Tomorrow, 25 November, Wednesday

Time Temperature Precipitation Wind Pressure Humidity
00:00 -5°C° 0 mm 2 mps 679 mmHg 52%
01:00 -5°C° 0 mm 2 mps 679 mmHg 51%
02:00 -5°C° 0 mm 2 mps 679 mmHg 50%
03:00 -5°C° 0 mm 2 mps 679 mmHg 50%
04:00 -3°C° 0 mm 1 mps 679 mmHg 50%
05:00 -3°C° 0 mm 1 mps 679 mmHg 50%
06:00 -2°C° 0 mm 1 mps 680 mmHg 51%
07:00 -2°C° 0 mm 1 mps 680 mmHg 52%
08:00 -2°C° 0 mm 1 mps 680 mmHg 53%
09:00 -1°C° 0 mm 1 mps 681 mmHg 55%
10:00 +1°C° 0 mm 1 mps 681 mmHg 56%
11:00 +1°C° 0 mm 0 mps 682 mmHg 58%
12:00 +2°C° 0 mm 1 mps 681 mmHg 60%
13:00 +2°C° 0 mm 1 mps 681 mmHg 62%
14:00 +2°C° 0 mm 1 mps 681 mmHg 64%
15:00 +1°C° 0 mm 1 mps 681 mmHg 67%
16:00 0°C° 0 mm 1 mps 681 mmHg 69%
17:00 -1°C° 0 mm 1 mps 681 mmHg 71%
18:00 -1°C° 0 mm 1 mps 681 mmHg 71%
19:00 -1°C° 0 mm 1 mps 681 mmHg 71%
20:00 -1°C° 0 mm 1 mps 682 mmHg 71%
21:00 -1°C° 0 mm 1 mps 682 mmHg 71%
22:00 -1°C° 0 mm 1 mps 681 mmHg 72%
23:00 -4°C° 0 mm 2 mps 681 mmHg 72%

Day after tomorrow, 26 November, Thursday

Time Temperature Precipitation Wind Pressure Humidity
00:00 -3°C° 0 mm 2 mps 681 mmHg 72%
01:00 -3°C° 0 mm 2 mps 682 mmHg 71%
02:00 -3°C° 0 mm 2 mps 682 mmHg 71%
03:00 -4°C° 0 mm 2 mps 682 mmHg 70%
04:00 -4°C° 0 mm 2 mps 682 mmHg 68%
05:00 -4°C° 0 mm 2 mps 682 mmHg 66%
06:00 -5°C° 0 mm 3 mps 682 mmHg 65%
07:00 -5°C° 0 mm 3 mps 682 mmHg 63%
08:00 -5°C° 0 mm 3 mps 682 mmHg 62%
09:00 -2°C° 0 mm 3 mps 682 mmHg 62%
10:00 0°C° 0 mm 3 mps 682 mmHg 63%
11:00 +1°C° 0 mm 3 mps 682 mmHg 63%
12:00 +3°C° 0 mm 2 mps 682 mmHg 63%
13:00 +3°C° 0 mm 2 mps 682 mmHg 63%
14:00 +4°C° 0 mm 2 mps 682 mmHg 63%
15:00 +3°C° 0 mm 2 mps 682 mmHg 61%
16:00 +2°C° 0 mm 2 mps 681 mmHg 58%
17:00 +2°C° 0 mm 2 mps 681 mmHg 55%
18:00 +1°C° 0 mm 3 mps 681 mmHg 53%
19:00 +1°C° 0 mm 3 mps 681 mmHg 51%
20:00 +1°C° 0 mm 3 mps 681 mmHg 49%
21:00 +1°C° 0 mm 3 mps 681 mmHg 47%
22:00 +1°C° 0 mm 3 mps 680 mmHg 45%
23:00 0°C° 0 mm 4 mps 680 mmHg 44%

27 November, Friday

Time Temperature Precipitation Wind Pressure Humidity
00:00 0°C° 0 mm 4 mps 680 mmHg 44%
01:00 +1°C° 0 mm 4 mps 680 mmHg 43%
02:00 +1°C° 0 mm 4 mps 680 mmHg 43%
03:00 +2°C° 0 mm 3 mps 679 mmHg 43%
04:00 +3°C° 0 mm 3 mps 679 mmHg 42%
05:00 +3°C° 0 mm 3 mps 679 mmHg 41%
06:00 +3°C° 0 mm 3 mps 679 mmHg 43%
07:00 +4°C° 0 mm 3 mps 679 mmHg 44%
08:00 +4°C° 0 mm 3 mps 679 mmHg 45%
09:00 +5°C° 0 mm 3 mps 679 mmHg 47%
10:00 +7°C° 0 mm 3 mps 679 mmHg 49%
11:00 +8°C° 0 mm 3 mps 679 mmHg 51%
12:00 +8°C° 0 mm 3 mps 679 mmHg 52%
13:00 +8°C° 0 mm 3 mps 679 mmHg 52%
14:00 +8°C° 0 mm 2 mps 679 mmHg 53%
15:00 +7°C° 0 mm 2 mps 679 mmHg 53%
16:00 +6°C° 0 mm 2 mps 679 mmHg 53%
17:00 +5°C° 0 mm 2 mps 679 mmHg 53%
18:00 +5°C° 0 mm 2 mps 680 mmHg 55%
19:00 +4°C° 0 mm 2 mps 680 mmHg 57%
20:00 +3°C° 0 mm 3 mps 680 mmHg 59%
21:00 +3°C° 0.1 mm 3 mps 681 mmHg 61%
22:00 +4°C° 0.1 mm 2 mps 681 mmHg 64%
23:00 +4°C° 0.1 mm 2 mps 681 mmHg 67%

28 November, Saturday

Time Temperature Precipitation Wind Pressure Humidity
00:00 +2°C° 0.6 mm 3 mps 682 mmHg 76%
01:00 +1°C° 0.6 mm 3 mps 682 mmHg 84%
02:00 0°C° 0.6 mm 3 mps 683 mmHg 93%
03:00 -1°C° 2.8 mm 4 mps 684 mmHg 95%
04:00 -2°C° 2.8 mm 4 mps 685 mmHg 97%
05:00 -2°C° 2.8 mm 4 mps 685 mmHg 98%
06:00 -3°C° 2.2 mm 4 mps 686 mmHg 98%
07:00 -2°C° 2.2 mm 3 mps 687 mmHg 98%
08:00 -4°C° 2.2 mm 3 mps 688 mmHg 97%
09:00 -4°C° 0.2 mm 3 mps 689 mmHg 97%
10:00 -2°C° 0.2 mm 3 mps 690 mmHg 96%
11:00 -2°C° 0.2 mm 3 mps 690 mmHg 95%
12:00 -2°C° 0 mm 2 mps 691 mmHg 93%
13:00 -2°C° 0 mm 2 mps 691 mmHg 92%
14:00 +1°C° 0 mm 1 mps 691 mmHg 91%
15:00 -3°C° 0 mm 2 mps 690 mmHg 86%
16:00 -4°C° 0 mm 2 mps 690 mmHg 81%
17:00 -6°C° 0 mm 3 mps 690 mmHg 76%
18:00 -6°C° 0 mm 3 mps 690 mmHg 68%
19:00 -7°C° 0 mm 3 mps 689 mmHg 59%
20:00 -7°C° 0 mm 3 mps 689 mmHg 50%
21:00 -7°C° 0 mm 3 mps 689 mmHg 47%
22:00 -6°C° 0 mm 2 mps 689 mmHg 44%
23:00 -6°C° 0 mm 2 mps 688 mmHg 41%

29 November, Sunday

Time Temperature Precipitation Wind Pressure Humidity
00:00 -5°C° 0 mm 2 mps 688 mmHg 40%
01:00 -5°C° 0 mm 2 mps 688 mmHg 39%
02:00 -5°C° 0 mm 2 mps 688 mmHg 38%
03:00 -5°C° 0 mm 2 mps 687 mmHg 37%
04:00 -4°C° 0 mm 2 mps 687 mmHg 37%
05:00 -4°C° 0 mm 2 mps 687 mmHg 36%
06:00 -4°C° 0 mm 2 mps 687 mmHg 36%
07:00 -3°C° 0 mm 2 mps 686 mmHg 35%
08:00 -3°C° 0 mm 2 mps 686 mmHg 35%
09:00 -1°C° 0 mm 2 mps 686 mmHg 43%
10:00 +1°C° 0 mm 2 mps 686 mmHg 51%
11:00 +4°C° 0 mm 1 mps 687 mmHg 59%
12:00 +4°C° 0 mm 1 mps 686 mmHg 60%
13:00 +4°C° 0 mm 1 mps 686 mmHg 62%
14:00 +5°C° 0 mm 1 mps 686 mmHg 63%
15:00 +4°C° 0 mm 1 mps 685 mmHg 58%
16:00 +1°C° 0 mm 2 mps 685 mmHg 53%
17:00 -1°C° 0 mm 2 mps 684 mmHg 48%
18:00 -1°C° 0 mm 2 mps 684 mmHg 46%
19:00 -1°C° 0 mm 2 mps 684 mmHg 43%
20:00 -1°C° 0 mm 2 mps 683 mmHg 41%
21:00 -1°C° 0 mm 2 mps 683 mmHg 41%
22:00 +1°C° 0 mm 2 mps 683 mmHg 41%
23:00 +1°C° 0 mm 2 mps 682 mmHg 41%
Show more

We Need Your Consent

Meteoprog and our Service Providers may store and access personal data such as cookies, device identifiers or other similar technologies on your device and process such data to personalise content and ads, as well as provide social media features and to analyse the traffic.

  • Store and/or access information on your device

    Cookies, device identifiers or other information can be stored or accessed on your device for the purposes indicated above.

  • Personalised ads and content, ad and content measurement, audience insights, and products development

    Ads and content can be personalised based on a profile. More data can be added to better personalise ads and content. Ad and content performance can be measured. Insights about the audience who saw the ads and content can be derived. Such data can be used to develop or improve user’s experience, systems and software.

By clicking ‘I Agree’ you will allow the use of indicated cookies, device identifiers, web beacons or other similar technologies. Your settings can be changed in the browser on your device.

For certain purposes, legitimate interests may be relied on, rather than consent. You can read more about this in our Privacy and Cookie Policy.